DW7027 Weather Reports


Display with metric or nautical units.
time (UTC)temp
F
wind
direction
speed
MPH
gust
MPH
rain 1hr
in
rain 24hr
in
rain mn
in
humidity
%
barometer
mb
20260905054206 67 281 3.0 14.0 0.00 0.00 0.00 65 1022.2
20260905053706 67 350 6.0 10.0 0.00 0.00 0.00 65 1022.2
20260905053206 67 334 7.0 13.0 0.00 0.00 0.00 65 1022.2
20260905052706 67 343 5.0 10.0 0.00 0.00 0.00 65 1022.1
20260905051206 67 329 5.0 12.0 0.00 0.00 0.00 63 1022.1
20260905050706 67 340 5.0 10.0 0.00 0.00 0.00 62 1022.0
20260905050207 68 343 7.0 13.0 0.00 0.00 0.00 62 1021.6
20260905045206 68 329 4.0 8.0 0.00 0.00 0.00 59 1021.4
20260905044706 68 347 6.0 13.0 0.00 0.00 0.00 59 1021.5
20260905044206 68 324 7.0 21.0 0.00 0.00 0.00 59 1021.3
20260905043706 69 345 5.0 16.0 0.00 0.00 0.00 58 1020.9
20260905042706 69 313 9.0 15.0 0.00 0.00 0.00 57 1021.1
20260905042205 69 332 7.0 14.0 0.00 0.00 0.00 57 1020.7
20260905041205 69 333 6.0 14.0 0.00 0.00 0.00 57 1020.6
20260905040706 69 348 5.0 10.0 0.00 0.00 0.00 57 1020.2
20260905035706 69 336 6.0 13.0 0.00 0.00 0.00 57 1019.9
20260905034706 69 321 5.0 10.0 0.00 0.00 0.00 57 1019.7
20260905033705 69 339 6.0 12.0 0.00 0.00 0.00 56 1019.8
20260905033206 69 337 5.0 13.0 0.00 0.00 0.00 56 1019.6
20260905032706 70 336 5.0 10.0 0.00 0.00 0.00 56 1019.2
20260905031706 70 326 6.0 12.0 0.00 0.00 0.00 55 1018.7
20260905031205 70 352 7.0 15.0 0.00 0.00 0.00 55 1018.4
20260905025706 71 351 9.0 15.0 0.00 0.00 0.00 56 1018.5
20260905025206 71 331 5.0 15.0 0.00 0.00 0.00 56 1018.6
20260905024206 72 351 9.0 18.0 0.00 0.00 0.00 56 1018.5
20260905023706 72 348 5.0 16.0 0.00 0.00 0.00 56 1018.0
20260905023206 73 357 7.0 17.0 0.00 0.00 0.00 56 1018.3
20260905022206 74 357 10.0 15.0 0.00 0.00 0.00 56 1018.2
20260905021707 74 335 5.0 15.0 0.00 0.00 0.00 54 1018.1
20260905020705 77 8 12.0 24.0 0.00 0.00 0.00 52 1017.5
20260905015705 78 326 11.0 21.0 0.00 0.00 0.00 49 1017.0
20260905015208 78 295 8.0 14.0 0.00 0.00 0.00 50 1016.7
20260905013706 78 285 9.0 14.0 0.00 0.00 0.00 50 1016.6
20260905012706 78 279 7.0 12.0 0.00 0.00 0.00 50 1016.4
20260905012206 78 288 7.0 9.0 0.00 0.00 0.00 51 1016.4
20260905011706 78 282 5.0 12.0 0.00 0.00 0.00 50 1016.1
20260905011206 78 272 7.0 14.0 0.00 0.00 0.00 50 1016.2
20260905010708 79 278 6.0 10.0 0.00 0.00 0.00 49 1016.4
20260905005706 78 280 7.0 14.0 0.00 0.00 0.00 49 1016.1
20260905005206 78 278 6.0 10.0 0.00 0.00 0.00 49 1016.1
20260905004705 78 275 6.0 9.0 0.00 0.00 0.00 48 1016.0
20260905004206 78 274 6.0 8.0 0.00 0.00 0.00 48 1016.1
20260905003706 78 274 5.0 8.0 0.00 0.00 0.00 49 1016.1
20260905002706 78 274 5.0 7.0 0.00 0.00 0.00 49 1016.0
20260905002205 78 281 6.0 9.0 0.00 0.00 0.00 48 1015.8
20260905001705 78 274 4.0 8.0 0.00 0.00 0.00 48 1015.7
20260905000206 78 276 5.0 9.0 0.00 0.00 0.00 49 1015.8
20260904235706 78 284 6.0 9.0 0.00 0.00 0.00 49 1015.8
20260904234706 78 281 5.0 8.0 0.00 0.00 0.00 49 1015.7
20260904234205 77 274 5.0 8.0 0.00 0.00 0.00 49 1015.6
20260904233706 77 267 5.0 7.0 0.00 0.00 0.00 50 1015.8
20260904231707 75 261 3.0 6.0 0.00 0.00 0.00 53 1016.0
20260904231206 74 264 2.0 6.0 0.00 0.00 0.00 55 1016.0
20260904230706 73 247 3.0 6.0 0.00 0.00 0.00 57 1016.0
20260904230205 72 247 3.0 7.0 0.00 0.00 0.00 58 1015.8
20260904225706 71 237 4.0 6.0 0.00 0.00 0.00 61 1015.8
20260904225205 70 244 3.0 6.0 0.00 0.00 0.00 63 1015.6
20260904224206 69 237 2.0 3.0 0.00 0.00 0.00 65 1015.7
20260904223707 69 242 2.0 2.0 0.00 0.00 0.00 65 1015.7
20260904223206 69 257 1.0 2.0 0.00 0.00 0.00 65 1015.7
20260904222705 69 250 1.0 2.0 0.00 0.00 0.00 65 1015.6
20260904222205 68 227 2.0 2.0 0.00 0.00 0.00 65 1015.8
20260904221707 68 225 1.0 2.0 0.00 0.00 0.00 65 1015.8
20260904220706 68 53 0.0 1.0 0.00 0.00 0.00 65 1015.7
20260904220206 68 248 1.0 1.0 0.00 0.00 0.00 65 1015.8
20260904215705 68 249 0.0 1.0 0.00 0.00 0.00 65 1015.9
20260904215205 68 224 0.0 1.0 0.00 0.00 0.00 65 1015.6
20260904213707 68 280 0.0 1.0 0.00 0.00 0.00 64 1015.7
20260904212205 68 129 0.0 1.0 0.00 0.00 0.00 63 1015.7
20260904211707 69 256 0.0 2.0 0.00 0.00 0.00 62 1015.8
20260904211205 69 224 0.0 1.0 0.00 0.00 0.00 62 1015.9
20260904210705 69 282 0.0 2.0 0.00 0.00 0.00 61 1015.9
20260904210205 69 336 1.0 1.0 0.00 0.00 0.00 60 1015.9
20260904205707 70 328 1.0 1.0 0.00 0.00 0.00 59 1016.0
20260904205205 70 326 0.0 1.0 0.00 0.00 0.00 59 1015.9
20260904203705 71 282 1.0 2.0 0.00 0.00 0.00 57 1015.9
20260904202206 72 221 1.0 2.0 0.00 0.00 0.00 55 1016.0
20260904201705 73 231 1.0 2.0 0.00 0.00 0.00 54 1016.2
20260904200705 74 191 2.0 2.0 0.00 0.00 0.00 53 1016.2
20260904200205 74 200 1.0 2.0 0.00 0.00 0.00 53 1016.1
20260904195705 74 219 1.0 2.0 0.00 0.00 0.00 52 1016.1
20260904195206 75 208 1.0 2.0 0.00 0.00 0.00 51 1016.3
20260904194705 75 178 1.0 3.0 0.00 0.00 0.00 51 1016.3
20260904193206 76 259 2.0 3.0 0.00 0.00 0.00 50 1016.3
20260904192705 77 242 2.0 3.0 0.00 0.00 0.00 49 1016.5
20260904192205 77 246 3.0 5.0 0.00 0.00 0.00 49 1016.4
20260904191705 77 243 2.0 3.0 0.00 0.00 0.00 49 1016.3
20260904191207 77 237 3.0 6.0 0.00 0.00 0.00 48 1016.3
20260904190705 77 226 3.0 5.0 0.00 0.00 0.00 48 1016.3
20260904190205 78 228 3.0 5.0 0.00 0.00 0.00 47 1016.4
20260904185706 78 203 2.0 3.0 0.00 0.00 0.00 47 1016.1
20260904185207 78 247 2.0 3.0 0.00 0.00 0.00 46 1016.2
20260904184208 79 228 2.0 5.0 0.00 0.00 0.00 45 1016.3
20260904183705 79 218 3.0 5.0 0.00 0.00 0.00 45 1016.3
20260904183205 79 230 3.0 6.0 0.00 0.00 0.00 45 1016.1
20260904182705 80 211 3.0 5.0 0.00 0.00 0.00 44 1016.2
20260904182205 80 241 3.0 6.0 0.00 0.00 0.00 44 1015.9
20260904181706 80 222 4.0 8.0 0.00 0.00 0.00 44 1015.9
20260904180705 80 210 5.0 6.0 0.00 0.00 0.00 43 1015.9
20260904174206 82 241 3.0 5.0 0.00 0.00 0.00 41 1015.5
20260904173705 82 241 3.0 5.0 0.00 0.00 0.00 41 1015.7
20260904171704 84 230 3.0 7.0 0.00 0.00 0.00 40 1015.7
20260904171204 85 247 3.0 7.0 0.00 0.00 0.00 40 1015.7
20260904170705 85 241 4.0 7.0 0.00 0.00 0.00 39 1015.8
20260904170207 85 240 5.0 9.0 0.00 0.00 0.00 39 1015.7
20260904165705 86 236 5.0 12.0 0.00 0.00 0.00 38 1015.8
20260904165205 86 247 6.0 12.0 0.00 0.00 0.00 38 1015.9
20260904164705 87 238 7.0 13.0 0.00 0.00 0.00 38 1015.8
20260904163204 87 259 6.0 10.0 0.00 0.00 0.00 38 1016.0
20260904162704 87 243 5.0 14.0 0.00 0.00 0.00 38 1016.2
20260904162205 87 238 10.0 16.0 0.00 0.00 0.00 37 1016.1
20260904160704 88 244 6.0 16.0 0.00 0.00 0.00 37 1016.4
20260904160206 88 263 9.0 16.0 0.00 0.00 0.00 37 1016.2
20260904155705 88 241 6.0 15.0 0.00 0.00 0.00 37 1016.3
20260904155204 88 226 7.0 16.0 0.00 0.00 0.00 37 1016.4
20260904154706 89 234 8.0 15.0 0.00 0.00 0.00 37 1016.4
20260904154204 89 241 8.0 16.0 0.00 0.00 0.00 36 1016.6
20260904153205 90 254 7.0 13.0 0.00 0.00 0.00 36 1016.5
20260904152205 90 276 9.0 14.0 0.00 0.00 0.00 36 1016.7
20260904151705 90 243 9.0 15.0 0.00 0.00 0.00 35 1016.8
20260904151205 90 264 9.0 16.0 0.00 0.00 0.00 35 1016.9
20260904150205 90 277 8.0 16.0 0.00 0.00 0.00 36 1017.0
20260904145705 90 245 7.0 16.0 0.00 0.00 0.00 36 1017.0
20260904145205 90 288 9.0 17.0 0.00 0.00 0.00 36 1017.0
20260904144704 90 275 12.0 17.0 0.00 0.00 0.00 36 1017.1
20260904144207 90 254 6.0 13.0 0.00 0.00 0.00 37 1017.2
20260904143205 90 236 10.0 16.0 0.00 0.00 0.00 37 1017.6
20260904142706 90 259 7.0 14.0 0.00 0.00 0.00 36 1017.6
20260904142205 90 281 9.0 18.0 0.00 0.00 0.00 37 1017.6
20260904141705 90 268 8.0 16.0 0.00 0.00 0.00 36 1017.7
20260904141207 90 237 6.0 12.0 0.00 0.00 0.00 37 1017.8
20260904140706 90 268 4.0 17.0 0.00 0.00 0.00 37 1017.8
20260904140205 90 272 10.0 18.0 0.00 0.00 0.00 36 1017.9
20260904135707 90 236 7.0 13.0 0.00 0.00 0.00 37 1018.0
20260904134705 90 271 9.0 16.0 0.00 0.00 0.00 37 1018.2
20260904134205 89 286 8.0 14.0 0.00 0.00 0.00 38 1018.3
20260904133704 89 255 8.0 17.0 0.00 0.00 0.00 37 1018.1
20260904133205 90 239 8.0 21.0 0.00 0.00 0.00 36 1018.3
20260904132705 90 287 11.0 22.0 0.00 0.00 0.00 38 1018.1
20260904132205 89 280 9.0 17.0 0.00 0.00 0.00 37 1018.3
20260904131205 89 239 10.0 14.0 0.00 0.00 0.00 37 1018.5
20260904130205 89 252 8.0 15.0 0.00 0.00 0.00 39 1018.4
20260904125704 89 273 8.0 15.0 0.00 0.00 0.00 39 1018.7
20260904125205 89 282 8.0 14.0 0.00 0.00 0.00 38 1018.6
20260904124705 89 287 7.0 17.0 0.00 0.00 0.00 39 1018.7
20260904124204 89 265 9.0 15.0 0.00 0.00 0.00 38 1018.7
20260904123706 89 283 7.0 13.0 0.00 0.00 0.00 39 1018.8
20260904121205 88 244 6.0 13.0 0.00 0.00 0.00 39 1019.2
20260904120705 88 276 8.0 16.0 0.00 0.00 0.00 39 1019.4
20260904120204 87 294 10.0 17.0 0.00 0.00 0.00 41 1019.3
20260904115705 86 289 6.0 12.0 0.00 0.00 0.00 43 1019.7
20260904114205 86 240 7.0 14.0 0.00 0.00 0.00 43 1019.8
20260904113704 86 247 6.0 13.0 0.00 0.00 0.00 44 1020.0
20260904113206 86 286 7.0 16.0 0.00 0.00 0.00 43 1019.9
20260904112705 86 241 8.0 17.0 0.00 0.00 0.00 44 1020.0
20260904111705 85 237 6.0 14.0 0.00 0.00 0.00 43 1020.1
20260904111205 84 257 3.0 12.0 0.00 0.00 0.00 46 1020.4
20260904110707 83 241 7.0 13.0 0.00 0.00 0.00 46 1020.4
20260904105705 83 241 5.0 13.0 0.00 0.00 0.00 46 1020.6
20260904105205 83 248 7.0 17.0 0.00 0.00 0.00 45 1020.6
20260904104705 83 282 10.0 17.0 0.00 0.00 0.00 45 1020.6
20260904104205 83 272 9.0 20.0 0.00 0.00 0.00 47 1020.8
20260904103705 83 282 9.0 17.0 0.00 0.00 0.00 48 1020.7
20260904102707 82 276 7.0 12.0 0.00 0.00 0.00 49 1021.2
20260904102204 82 275 7.0 12.0 0.00 0.00 0.00 48 1021.1
20260904100706 82 279 8.0 13.0 0.00 0.00 0.00 49 1021.5
20260904100207 82 282 8.0 16.0 0.00 0.00 0.00 49 1021.6
20260904094705 82 280 7.0 16.0 0.00 0.00 0.00 48 1021.7
20260904093705 82 265 9.0 16.0 0.00 0.00 0.00 49 1021.8
20260904093205 82 285 7.0 14.0 0.00 0.00 0.00 50 1022.0
20260904091205 81 297 9.0 15.0 0.00 0.00 0.00 51 1022.4
20260904090205 81 280 7.0 12.0 0.00 0.00 0.00 50 1022.5
20260904085205 81 277 7.0 15.0 0.00 0.00 0.00 51 1022.4
20260904084706 81 269 9.0 17.0 0.00 0.00 0.00 51 1022.8
20260904083707 80 280 5.0 14.0 0.00 0.00 0.00 52 1022.6
20260904082705 79 260 6.0 14.0 0.00 0.00 0.00 53 1022.8
20260904081205 78 265 3.0 10.0 0.00 0.00 0.00 55 1022.8
20260904080704 78 288 6.0 13.0 0.00 0.00 0.00 55 1022.9
20260904080205 77 242 6.0 10.0 0.00 0.00 0.00 55 1023.0
20260904075705 76 288 4.0 12.0 0.00 0.00 0.00 57 1023.1
20260904073705 75 281 5.0 12.0 0.00 0.00 0.00 59 1023.1
20260904072704 74 249 3.0 6.0 0.00 0.00 0.00 61 1023.0
20260904072205 73 222 3.0 5.0 0.00 0.00 0.00 62 1023.1
20260904071705 73 254 5.0 9.0 0.00 0.00 0.00 62 1023.2
20260904071205 73 259 3.0 5.0 0.00 0.00 0.00 63 1023.2
20260904070705 72 216 3.0 6.0 0.00 0.00 0.00 65 1023.0
20260904070205 71 261 2.0 3.0 0.00 0.00 0.00 67 1023.1
20260904065707 70 286 2.0 3.0 0.00 0.00 0.00 68 1023.0
20260904065205 70 243 2.0 3.0 0.00 0.00 0.00 69 1023.1
20260904064705 70 192 1.0 2.0 0.00 0.00 0.00 70 1023.1
20260904064205 69 355 0.0 2.0 0.00 0.00 0.00 71 1023.1
20260904063706 69 113 1.0 2.0 0.00 0.00 0.00 71 1023.0
20260904063205 68 225 0.0 2.0 0.00 0.00 0.00 72 1023.1
20260904062205 67 293 1.0 2.0 0.00 0.00 0.00 74 1023.4
20260904061705 66 272 1.0 2.0 0.00 0.00 0.00 74 1023.4
20260904061205 66 280 0.0 0.0 0.00 0.00 0.00 74 1023.3
20260904055705 65 223 1.0 2.0 0.00 0.00 0.00 75 1023.3
20260904055205 65 254 1.0 2.0 0.00 0.00 0.00 76 1023.3
20260904054705 65 269 0.0 1.0 0.00 0.00 0.00 76 1023.2